Location: ????????
(56.1167°N, 38.6333°E)
Time: 08:14:16
(UTC+00:00)

Cosmos 1536 Rocket - Pass Details

Date: 18 November 2025
Orbit: 598 x 625 km, 82.5° (Epoch: 14 December)

Event Time Altitude Azimuth Distance (km) Brightness Sun altitude
Rises 15:26:53 0° 347° (NNW) 2,924 7.1 -18.2°
Reaches altitude 10° 15:29:08 10° 347° (NNW) 2,010 6.2 -18.5°
Maximum altitude 15:33:35 84° 261° (W) 633 3.6 -19.1°
Drops below altitude 10° 15:37:59 10° 172° (S) 1,981 6.1 -19.8°
Sets 15:40:12 0° 172° (S) 2,878 7.0 -20.1°
